Spokane, WA

9:22 PM PDT on August 24, 2016 (GMT -0700)
Felts

Weather History for KSFF - August, 2013

Change the Weather History Date:

Friday, August 23, 2013

  Actual Average Record
Temperature  
Mean Temperature 73 °F 68 °F  
Max Temperature 84 °F 83 °F 93 °F (1999)
Min Temperature 61 °F 53 °F 46 °F (2015)
Degree Days  
Heating Degree Days 0 1  
Month to date heating degree days 5 9  
Since 1 June heating degree days 110 148  
Since 1 July heating degree days 5 30  
Cooling Degree Days 8 4  
Month to date cooling degree days 193 130  
Year to date cooling degree days 558 348  
Since 1 June cooling degree days 532 341  
Growing Degree Days 23 (Base 50)    
Moisture  
Dew Point 49 °F    
Average Humidity 42    
Maximum Humidity 56    
Minimum Humidity 28    
Precipitation  
Precipitation 0.00 in 0.02 in 0.07 in (2001)
Month to date precipitation 1.46 0.48  
Year to date precipitation 9.42 10.52  
Sea Level Pressure  
Sea Level Pressure 29.78 in    
Wind  
Wind Speed 5 mph (WSW)    
Max Wind Speed 16 mph    
Max Gust Speed 23 mph    
Visibility 10 miles    
Events      
T = Trace of Precipitation, MM = Missing Value Source: NWS Daily Summary

Daily Weather History Graph

Daily Weather History Graph

Search for Another Location

Airport or City:

Trip Planner

Search our weather history database for the weather conditions in past years. The results will help you decide how hot, cold, wet, or windy it might be!

Date:

Astronomy

Aug. 23, 2013 Rise Set
Actual Time 5:56 AM PDT 7:46 PM PDT
Civil Twilight 5:23 AM PDT 8:19 PM PDT
Nautical Twilight 4:42 AM PDT 8:59 PM PDT
Astronomical Twilight 3:58 AM PDT 9:43 PM PDT
Moon 8:48 PM PDT (8/23) 9:14 AM PDT (8/23)
Length of Visible Light 14h 56m
Length of Day
13h 50m
Waning Gibbous, 91% of the Moon is Illuminated
Aug 23
Waning Gibbous
Aug 28
Last Quarter
Sep 5
New
Sep 12
First Quarter
Sep 19
Full

Hourly Weather History & Observations

Time (PDT) Temp. Dew Point Humidity Pressure Visibility Wind Dir Wind Speed Gust Speed Precip Events Conditions
12:53 AM 75.0 °F 48.0 °F 38% 29.79 in 10.0 mi SW 4.6 mph - N/A   Clear
1:53 AM 73.9 °F 48.0 °F 40% 29.80 in 10.0 mi ESE 5.8 mph - N/A   Partly Cloudy
2:53 AM 73.0 °F 51.1 °F 46% 29.79 in 10.0 mi ENE 5.8 mph - N/A   Partly Cloudy
3:53 AM 71.1 °F 50.0 °F 47% 29.78 in 10.0 mi Calm Calm - N/A   Clear
4:53 AM 68.0 °F 48.9 °F 50% 29.78 in 10.0 mi East 3.5 mph - N/A   Mostly Cloudy
5:53 AM 68.0 °F 48.9 °F 50% 29.78 in 10.0 mi Calm Calm - N/A   Overcast
6:53 AM 68.0 °F 50.0 °F 52% 29.80 in 10.0 mi NNE 3.5 mph - N/A   Overcast
7:53 AM 70.0 °F 51.1 °F 51% 29.81 in 10.0 mi Calm Calm - N/A   Mostly Cloudy
8:53 AM 72.0 °F 51.1 °F 48% 29.82 in 10.0 mi WNW 5.8 mph - N/A   Mostly Cloudy
9:53 AM 73.0 °F 51.1 °F 46% 29.81 in 10.0 mi SSW 4.6 mph - N/A   Mostly Cloudy
10:53 AM 75.9 °F 53.1 °F 45% 29.81 in 10.0 mi Calm Calm - N/A   Overcast
11:53 AM 80.1 °F 51.1 °F 36% 29.79 in 10.0 mi Variable 4.6 mph - N/A   Clear
12:53 PM 79.0 °F 52.0 °F 39% 29.78 in 10.0 mi WNW 3.5 mph - N/A   Clear
1:53 PM 81.0 °F 50.0 °F 34% 29.77 in 10.0 mi Calm Calm - N/A   Mostly Cloudy
2:53 PM 82.0 °F 50.0 °F 33% 29.77 in 10.0 mi SW 12.7 mph - N/A   Partly Cloudy
3:53 PM 82.9 °F 46.9 °F 28% 29.76 in 10.0 mi West 10.4 mph 20.7 mph N/A   Mostly Cloudy
4:53 PM 82.9 °F 48.0 °F 29% 29.75 in 10.0 mi SW 13.8 mph - N/A   Mostly Cloudy
5:53 PM 82.0 °F 46.0 °F 28% 29.74 in 10.0 mi SW 15.0 mph 20.7 mph N/A   Scattered Clouds
6:53 PM 81.0 °F 46.0 °F 29% 29.74 in 10.0 mi WSW 9.2 mph - N/A   Clear
7:53 PM 75.9 °F 48.9 °F 38% 29.75 in 10.0 mi Calm Calm - N/A   Clear
8:53 PM 69.1 °F 48.0 °F 47% 29.78 in 10.0 mi Calm Calm - N/A   Clear
9:53 PM 64.9 °F 48.0 °F 54% 29.78 in 10.0 mi NE 4.6 mph - N/A   Clear
10:53 PM 64.9 °F 48.0 °F 54% 29.78 in 10.0 mi NNE 3.5 mph - N/A   Clear
11:53 PM 64.9 °F 48.0 °F 54% 29.78 in 10.0 mi Calm Calm - N/A   Clear